Preview of NWS' New Version of Forecast
This preview is not operational and should not be used for support decisions.

Regional Weather Roundup (RWR)

Issued by National Weather Service (NWS)

                            
000
ASUS46 KSEW 190610
RWRWA 

WASHINGTON REGIONAL WEATHER ROUNDUP
NATIONAL WEATHER SERVICE SEATTLE WA
1100 PM PDT SUN AUG 18 2019

NOTE:"FAIR" INDICATES FEW OR NO CLOUDS BELOW 12,000 FEET WITH NO 
SIGNIFICANT WEATHER AND/OR OBSTRUCTIONS TO VISIBILITY.

WAZ507-509-555>559-190700-
SEATTLE, TACOMA, EVERETT, AND VICINITY
  
CITY           SKY/WX    TMP DP  RH WIND       PRES   REMARKS
EVERETT        CLEAR     59  54  83 N6        29.91R                  
6HR MIN TEMP:  59; 6HR MAX TEMP:  71;                                

BOEING FIELD   MOCLDY    66  54  65 CALM      29.88S                  
6HR MIN TEMP:  65; 6HR MAX TEMP:  77;                                

RENTON         CLOUDY    66  56  70 N8        29.88R                  
6HR MIN TEMP:  66; 6HR MAX TEMP:  77;                                

SEATAC AIRPORT MOCLDY    66  55  67 NE7       29.89S                  
6HR MIN TEMP:  64; 6HR MAX TEMP:  76;                                

JBLM-MCCHORD   CLEAR     64  60  88 W5        29.90R                  
6HR MIN TEMP:  60; 6HR MAX TEMP:  75;                                

PUYALLUP       CLOUDY    61  57  88 CALM      29.90S                  
BREMERTON      CLEAR     59  54  83 CALM      29.90R                  
6HR MIN TEMP:  59; 6HR MAX TEMP:  73;                                

JBLM-FT LEWIS  CLEAR     62  61  97 CALM      29.89R                  
6HR MIN TEMP:  61; 6HR MAX TEMP:  73;                                

TACOMA NARROWS CLEAR     62  55  77 CALM      29.90R                  
6HR MIN TEMP:  62; 6HR MAX TEMP:  72;                                

$$
 
WAZ001-503-506-510-514-515-190700-
NORTH INTERIOR
  
CITY           SKY/WX    TMP DP  RH WIND       PRES   REMARKS
BELLINGHAM     CLEAR     62  52  69 S8        29.86R                  
6HR MIN TEMP:  61; 6HR MAX TEMP:  68;                                

FRIDAY HARBOR  CLEAR     54  50  86 CALM      29.87R                  
6HR MIN TEMP:  53; 6HR MAX TEMP:  68;                                

EASTSOUND      CLEAR     61  54  77 S8        29.85R                  
PORT ANGELES   CLEAR     57  53  86 W8        29.90S                  
6HR MIN TEMP:  57; 6HR MAX TEMP:  65;                                

EDIZ HOOK      FAIR      57  54  88 W9        29.90R                  
6HR MIN TEMP:  57; 6HR MAX TEMP:  64;                                

PORT TOWNSEND  MOCLDY    61  54  77 W5        29.88S                  
NAS WHIDBEY    PTCLDY    60  53  77 SW13      29.92R                  
6HR MIN TEMP:  60; 6HR MAX TEMP:  68;                                

ARLINGTON      CLEAR     58  51  78 N6        29.90S                  
6HR MIN TEMP:  58; 6HR MAX TEMP:  73;                                

BURLINGTON     CLEAR     55  52  88 S3        29.89S                  
$$
 
WAZ020-022-039-040-504-511-512-190700-
SOUTHWEST INTERIOR
  
CITY           SKY/WX    TMP DP  RH WIND       PRES   REMARKS
SHELTON        CLEAR     60  53  77 W9        29.87S                  
6HR MIN TEMP:  60; 6HR MAX TEMP:  74;                                

OLYMPIA        CLEAR     59  54  83 S5        29.89R                  
6HR MIN TEMP:  58; 6HR MAX TEMP:  71;                                

CHEHALIS       FAIR      59  57  94 CALM      29.91S                  
KELSO          CLEAR     62  56  80 CALM      29.91R                  
6HR MIN TEMP:  62; 6HR MAX TEMP:  73;                                

VANCOUVER      CLEAR     65  54  67 N5        29.88R                  
6HR MIN TEMP:  65; 6HR MAX TEMP:  76;                                

SCAPPOOSE, OR  CLEAR     63  55  75 VRB5      29.88R                  
6HR MIN TEMP:  63; 6HR MAX TEMP:  74;                                

PORTLAND, OR   CLEAR     65  55  70 NW3       29.89R                  
6HR MIN TEMP:  65; 6HR MAX TEMP:  77;                                

$$
 
WAZ021-516-517-190700-
WASHINGTON COAST
  
CITY           SKY/WX    TMP DP  RH WIND       PRES   REMARKS
FORKS          CLOUDY    61  55  81 CALM      29.91S                  
6HR MIN TEMP:  60; 6HR MAX TEMP:  70;                                

HOQUIAM        CLEAR     60  59  96 W6        29.91S                  
6HR MIN TEMP:  60; 6HR MAX TEMP:  66;                                

ASTORIA, OR    CLEAR     57  55  93 SW5       29.92S                  
6HR MIN TEMP:  56; 6HR MAX TEMP:  68; 6HR PCP: TRACE;                

$$
 
WAZ019-023-024-040-567>569-190700-
CASCADE MOUNTAINS AND COLUMBIA GORGE
  
CITY           SKY/WX    TMP DP  RH WIND       PRES   REMARKS
STAMPEDE PASS  FOG       53  51  93 VRB5      29.95S VSB 1/4          
6HR MIN TEMP:  53; 6HR MAX TEMP:  64;                                

TROUTDALE, OR  CLEAR     66  55  67 VRB3      29.88R                  
6HR MIN TEMP:  66; 6HR MAX TEMP:  78;                                

HOOD RIVER, OR CLEAR     68  54  60 NW12G18   29.83R                  
THE DALLES, OR CLEAR     71  53  52 NW14      29.77R                  
6HR MIN TEMP:  71; 6HR MAX TEMP:  85;                                

$$

WAZ026-027-041>044-520-521-190700-
EAST SLOPES
  
CITY           SKY/WX    TMP DP  RH WIND       PRES   REMARKS
OMAK           CLEAR     70  45  40 W3        29.71R                  
6HR MIN TEMP:  70; 6HR MAX TEMP:  89;                                

WENATCHEE      CLEAR     74  43  32 NW15      29.74R                  
6HR MIN TEMP:  74; 6HR MAX TEMP:  84;                                

ELLENSBURG     CLEAR     67  51  56 NW14      29.80R                  
6HR MIN TEMP:  67; 6HR MAX TEMP:  86;                                

YAKIMA         CLEAR     74  51  44 NW7       29.77R                  
6HR MIN TEMP:  72; 6HR MAX TEMP:  88;                                

SUNNYSIDE ARPT CLEAR     62  56  81 N5        29.73                   
6HR MIN TEMP:  62; 6HR MAX TEMP:  87;                                

YAKIMA TC      FAIR      71  44  39 E12       29.76R                  
6HR MIN TEMP:  71; 6HR MAX TEMP:  87;                                

$$

WAZ028-034-035-190700-
COLUMBIA BASIN
  
CITY           SKY/WX    TMP DP  RH WIND       PRES   REMARKS
EPHRATA        CLEAR     74  47  38 NW7       29.72R                  
6HR MIN TEMP:  71; 6HR MAX TEMP:  85;                                

MOSES LAKE     CLEAR     71  53  52 N5        29.72S                  
6HR MIN TEMP:  71; 6HR MAX TEMP:  87;                                

PASCO          CLEAR     77  47  34 SW6       29.71R                  
6HR MIN TEMP:  68; 6HR MAX TEMP:  92;                                

RICHLAND ARPT  CLEAR     73  53  48 W3        29.71                   
6HR MIN TEMP:  71; 6HR MAX TEMP:  93;                                

HERMISTON, OR  CLEAR     74  47  38 VRB6      29.74R                  
6HR MIN TEMP:  74; 6HR MAX TEMP:  92;                                

$$

WAZ036>038-190700-
NORTHEAST WASHINGTON
  
CITY           SKY/WX    TMP DP  RH WIND       PRES   REMARKS
SPOKANE GEIGER CLEAR     72  39  30 SW9       29.78S                  
6HR MIN TEMP:  72; 6HR MAX TEMP:  83;                                

SPOKANE FELTS  CLEAR     64  42  44 CALM      29.77R                  
6HR MIN TEMP:  63; 6HR MAX TEMP:  86;                                

FAIRCHILD AFB  CLEAR     64  37  38 SW8       29.79R                  
6HR MIN TEMP:  64; 6HR MAX TEMP:  82;                                

COEURDALENE,ID CLEAR     58  49  72 NE3       29.79R                  
6HR MIN TEMP:  58; 6HR MAX TEMP:  84;                                

DEER PARK      CLEAR     56  45  66 CALM      29.77S                  
6HR MIN TEMP:  56; 6HR MAX TEMP:  83;                                

$$

WAZ029>033-190700-
SOUTHEAST WASHINGTON
  
CITY           SKY/WX    TMP DP  RH WIND       PRES   REMARKS
PULLMAN        CLEAR     58  36  43 CALM      29.83R                  
6HR MIN TEMP:  57; 6HR MAX TEMP:  84;                                

LEWISTON, ID   CLEAR     74  36  25 S7        29.75R                  
6HR MIN TEMP:  74; 6HR MAX TEMP:  92;                                

WALLA WALLA    CLEAR     73  41  31 SE7       29.75R                  
6HR MIN TEMP:  70; 6HR MAX TEMP:  90;                                

PENDLETON, OR  CLEAR     68  41  37 NW6       29.78R                  
6HR MIN TEMP:  66; 6HR MAX TEMP:  88;                                

$$